{"data":{"norad_id":67148,"intl_designator":"2025-301R","name":"KUIPER-00232","alt_names":[],"object_type":"PAYLOAD","status":"ACTIVE","operator":null,"country":"US","launch_date":"2025-12-16","launch_site_code":"AFETR","launch_vehicle":null,"mission":null,"orbit_class":"UNKNOWN","rcs_meters":null,"size_class":null,"mass_kg":null,"dimensions":null,"purposes":[],"wikipedia_slug":null,"has_3d_model":false,"image_url":null,"decayed_at":null,"tle_current":{"epoch":"2026-05-25T02:27:59.315040Z","epoch_age_seconds":62231,"freshness":"FRESH","line1":"1 67148U 25301R   26145.10276985  .00002865  00000+0  40510-3 0  9996","line2":"2 67148  51.8992  87.7530 0001195  85.9806 274.1292 14.79888656 25044","mean_motion":14.79888656,"eccentricity":0.0001195,"inclination_deg":51.8992,"raan_deg":87.753,"arg_perigee_deg":85.9806,"mean_anomaly_deg":274.1292,"bstar":0.0004051,"rev_number":2504,"period_min":97.304617760378,"perigee_km":628.83818208236,"apogee_km":630.51304929751,"semimajor_km":7007.8126156899,"source":"CELESTRAK","updated_at":"2026-05-25T13:38:06.776529Z"}}}